WXM80 ListenWXM80 Stop

You find our weather info also at:

UK Metoffice

WeatherCloud

Weather Underground

Northeastern Weather Network

AWEKAS

Citizen Weather Observer Program (CWOP)

HAMweather, WeatherForYou, PWS Weather


Weather Underground History page Text

Daily Summary for December 16, 2017 Units:  English    Metric   Both
« Previous Day
Next Day »
Daily Weekly Monthly Yearly Custom
  High: Low: Average:
Temperature: TemperatureF °F 24.5 °F 32.5 °F
Dew Point: DewpointF °F 19.9 °F 25.1 °F
Humidity: Humidity % 65 % 74 %
Wind Speed: WindSpeedMPH mph 0.0 mph 4.8 mph
Wind Gust: WindSpeedGustMPH mph - -
Wind:- - WSW
Pressure: PressureIn in 29.89 in -
Precipitation: 0.00 in    
Historical Graphs
 
 
Tabular Data for December 16, 2017
Time Temperature Dew Point Pressure Wind Wind Speed Wind Gust Humidity Rainfall Rate (Hourly)
TemperatureF °F DewpointF °F PressureIn in Calm     Humidity % HourlyPrecipIn in
00:01 25.2 °F 21.9 °F 29.89 in SSW 1.8 mph 6.0 mph 87 % 0.00 in
00:03 25.2 °F 21.9 °F 29.89 in SW 1.8 mph 5.8 mph 87 % 0.00 in
00:08 25.1 °F 21.5 °F 29.89 in WNW 1.0 mph 3.5 mph 86 % 0.00 in
00:13 25.0 °F 21.7 °F 29.89 in SW 2.5 mph 8.1 mph 87 % 0.00 in
00:18 25.0 °F 21.7 °F 29.89 in SW 2.3 mph 3.5 mph 87 % 0.00 in
00:23 24.9 °F 21.6 °F 29.89 in WSW 1.1 mph 3.5 mph 87 % 0.00 in
00:24 24.9 °F 21.6 °F 29.89 in SW 1.6 mph 3.5 mph 87 % 0.00 in
00:25 24.9 °F 21.6 °F 29.89 in SW 1.1 mph 3.5 mph 87 % 0.00 in
00:30 24.8 °F 21.5 °F 29.89 in WNW 4.6 mph 6.9 mph 87 % 0.00 in
00:32 24.8 °F 21.5 °F 29.89 in West 3.6 mph 5.8 mph 87 % 0.00 in
00:37 24.8 °F 21.5 °F 29.89 in SW 0.7 mph 4.0 mph 87 % 0.00 in
00:42 24.8 °F 21.5 °F 29.89 in South 0.5 mph 3.5 mph 87 % 0.00 in
00:47 24.7 °F 21.4 °F 29.90 in West 0.2 mph 3.5 mph 87 % 0.00 in
00:48 24.7 °F 21.4 °F 29.90 in Calm   3.5 mph 87 % 0.00 in
00:53 24.6 °F 21.3 °F 29.90 in SSW 0.3 mph 1.2 mph 87 % 0.00 in
00:59 24.6 °F 21.3 °F 29.90 in WSW 0.7 mph 4.0 mph 87 % 0.00 in
01:04 24.5 °F 21.2 °F 29.89 in WSW 3.2 mph 4.6 mph 87 % 0.00 in
01:09 24.5 °F 21.2 °F 29.90 in SW 5.0 mph 8.1 mph 87 % 0.00 in
01:10 24.6 °F 21.6 °F 29.90 in WSW 3.5 mph 6.9 mph 88 % 0.00 in
01:13 24.6 °F 21.6 °F 29.89 in West 3.9 mph 6.9 mph 88 % 0.00 in
01:18 24.7 °F 21.7 °F 29.90 in SSW 5.1 mph 9.0 mph 88 % 0.00 in
01:23 24.8 °F 21.8 °F 29.90 in WSW 8.0 mph 12.7 mph 88 % 0.00 in
01:24 24.8 °F 21.8 °F 29.89 in WSW 5.8 mph 11.5 mph 88 % 0.00 in
01:29 24.9 °F 21.8 °F 29.90 in SW 1.8 mph 6.9 mph 88 % 0.00 in
01:35 25.2 °F 22.1 °F 29.90 in WNW 3.9 mph 11.5 mph 88 % 0.00 in
01:36 25.2 °F 22.1 °F 29.90 in WSW 5.6 mph 9.2 mph 88 % 0.00 in
01:41 25.3 °F 22.2 °F 29.90 in WNW 2.0 mph 6.0 mph 88 % 0.00 in
01:44 25.4 °F 22.1 °F 29.90 in WNW 1.4 mph 6.9 mph 87 % 0.00 in
01:47 25.4 °F 22.1 °F 29.90 in WSW 3.5 mph 6.0 mph 87 % 0.00 in
01:51 25.5 °F 22.2 °F 29.90 in WSW 4.1 mph 11.5 mph 87 % 0.00 in
01:56 25.6 °F 22.3 °F 29.91 in WSW 4.3 mph 13.8 mph 87 % 0.00 in
01:59 25.6 °F 22.3 °F 29.91 in West 5.6 mph 11.5 mph 87 % 0.00 in
02:04 25.7 °F 22.4 °F 29.91 in WSW 6.5 mph 17.0 mph 87 % 0.00 in
02:09 25.9 °F 22.6 °F 29.91 in SW 3.8 mph 9.2 mph 87 % 0.00 in
02:13 25.9 °F 22.6 °F 29.91 in SW 3.8 mph 10.4 mph 87 % 0.00 in
02:18 26.0 °F 22.4 °F 29.91 in WNW 6.3 mph 12.7 mph 86 % 0.00 in
02:22 26.0 °F 22.4 °F 29.92 in WSW 5.8 mph 11.5 mph 86 % 0.00 in
02:27 26.1 °F 22.2 °F 29.92 in WSW 5.4 mph 9.2 mph 85 % 0.00 in
02:30 26.1 °F 22.2 °F 29.92 in WNW 5.1 mph 8.1 mph 85 % 0.00 in
02:34 26.1 °F 22.2 °F 29.92 in WNW 6.7 mph 10.4 mph 85 % 0.00 in
02:38 26.2 °F 22.3 °F 29.92 in West 4.2 mph 9.2 mph 85 % 0.00 in
02:43 26.2 °F 22.3 °F 29.92 in SW 5.6 mph 9.2 mph 85 % 0.00 in
02:45 26.3 °F 22.1 °F 29.92 in West 6.1 mph 17.3 mph 84 % 0.00 in
02:50 26.3 °F 22.1 °F 29.92 in WSW 6.4 mph 12.0 mph 84 % 0.00 in
02:52 26.3 °F 22.1 °F 29.92 in SW 6.6 mph 15.0 mph 84 % 0.00 in
02:55 26.3 °F 22.1 °F 29.92 in WSW 5.1 mph 10.4 mph 84 % 0.00 in
03:00 26.4 °F 22.2 °F 29.93 in West 5.3 mph 8.1 mph 84 % 0.00 in
03:01 26.4 °F 22.2 °F 29.93 in West 5.1 mph 10.0 mph 84 % 0.00 in
03:06 26.4 °F 22.2 °F 29.93 in WSW 7.8 mph 13.8 mph 84 % 0.00 in
03:08 26.4 °F 22.2 °F 29.93 in WNW 4.7 mph 11.5 mph 84 % 0.00 in
03:13 26.4 °F 22.2 °F 29.93 in SW 4.0 mph 6.9 mph 84 % 0.00 in
03:17 26.4 °F 22.2 °F 29.93 in West 5.0 mph 12.7 mph 84 % 0.00 in
03:22 26.5 °F 22.0 °F 29.94 in West 4.9 mph 12.7 mph 83 % 0.00 in
03:23 26.5 °F 22.0 °F 29.93 in WNW 3.7 mph 12.7 mph 83 % 0.00 in
03:27 26.5 °F 22.0 °F 29.93 in WSW 6.1 mph 12.7 mph 83 % 0.00 in
03:28 26.5 °F 22.0 °F 29.93 in West 6.0 mph 12.7 mph 83 % 0.00 in
03:33 26.5 °F 22.0 °F 29.93 in WNW 6.7 mph 10.0 mph 83 % 0.00 in
03:34 26.5 °F 22.0 °F 29.94 in WNW 7.6 mph 11.5 mph 83 % 0.00 in
03:39 26.6 °F 22.1 °F 29.93 in SW 6.1 mph 13.8 mph 83 % 0.00 in
03:41 26.6 °F 22.1 °F 29.93 in WNW 5.0 mph 11.0 mph 83 % 0.00 in
03:46 26.6 °F 22.1 °F 29.93 in SW 4.7 mph 10.4 mph 83 % 0.00 in
03:51 26.6 °F 21.8 °F 29.94 in West 3.7 mph 6.9 mph 82 % 0.00 in
03:56 26.7 °F 21.9 °F 29.94 in WNW 8.3 mph 11.5 mph 82 % 0.00 in
03:57 26.7 °F 21.9 °F 29.94 in West 7.1 mph 11.5 mph 82 % 0.00 in
04:02 26.8 °F 22.0 °F 29.94 in West 3.2 mph 11.5 mph 82 % 0.00 in
04:05 26.8 °F 22.0 °F 29.94 in WSW 6.0 mph 8.1 mph 82 % 0.00 in
04:10 26.9 °F 21.8 °F 29.94 in SW 7.6 mph 12.7 mph 81 % 0.00 in
04:12 26.9 °F 21.8 °F 29.94 in NW 4.8 mph 7.0 mph 81 % 0.00 in
04:17 26.9 °F 21.8 °F 29.94 in WSW 6.8 mph 15.0 mph 81 % 0.00 in
04:19 26.9 °F 21.8 °F 29.94 in SW 5.0 mph 9.2 mph 81 % 0.00 in
04:24 26.9 °F 21.8 °F 29.95 in West 4.5 mph 12.7 mph 81 % 0.00 in
04:29 26.9 °F 21.8 °F 29.95 in SW 4.5 mph 8.1 mph 81 % 0.00 in
04:30 26.9 °F 21.8 °F 29.95 in NW 6.7 mph 11.5 mph 81 % 0.00 in
04:34 26.9 °F 21.8 °F 29.95 in WSW 6.5 mph 14.0 mph 81 % 0.00 in
04:37 27.0 °F 21.9 °F 29.95 in West 6.1 mph 9.2 mph 81 % 0.00 in
04:42 27.0 °F 21.9 °F 29.95 in WSW 5.3 mph 10.4 mph 81 % 0.00 in
04:44 27.0 °F 21.9 °F 29.95 in West 4.2 mph 11.5 mph 81 % 0.00 in
04:50 27.1 °F 22.3 °F 29.96 in WSW 4.3 mph 10.4 mph 82 % 0.00 in
04:52 27.1 °F 22.3 °F 29.96 in West 2.7 mph 6.9 mph 82 % 0.00 in
04:55 27.1 °F 22.3 °F 29.96 in SW 4.9 mph 8.1 mph 82 % 0.00 in
05:00 27.2 °F 22.4 °F 29.96 in West 4.8 mph 10.4 mph 82 % 0.00 in
05:05 27.2 °F 22.1 °F 29.96 in West 7.1 mph 12.7 mph 81 % 0.00 in
05:07 27.3 °F 22.2 °F 29.96 in West 4.3 mph 8.1 mph 81 % 0.00 in
05:11 27.3 °F 22.2 °F 29.96 in West 1.6 mph 6.9 mph 81 % 0.00 in
05:13 27.3 °F 22.2 °F 29.96 in West 2.8 mph 9.2 mph 81 % 0.00 in
05:18 27.3 °F 22.2 °F 29.96 in West 3.6 mph 11.5 mph 81 % 0.00 in
05:19 27.4 °F 22.3 °F 29.96 in WSW 3.1 mph 5.8 mph 81 % 0.00 in
05:23 27.4 °F 22.0 °F 29.96 in WSW 5.9 mph 11.0 mph 80 % 0.00 in
05:26 27.4 °F 22.0 °F 29.96 in WSW 6.2 mph 11.5 mph 80 % 0.00 in
05:31 27.4 °F 22.0 °F 29.96 in SSW 4.1 mph 11.5 mph 80 % 0.00 in
05:32 27.5 °F 22.1 °F 29.96 in SW 5.4 mph 12.0 mph 80 % 0.00 in
05:37 27.5 °F 22.1 °F 29.96 in SW 10.1 mph 16.1 mph 80 % 0.00 in
05:42 27.6 °F 21.9 °F 29.96 in West 7.5 mph 11.5 mph 79 % 0.00 in
05:46 27.7 °F 22.0 °F 29.97 in WSW 9.1 mph 13.8 mph 79 % 0.00 in
05:51 27.8 °F 22.1 °F 29.97 in West 2.8 mph 9.2 mph 79 % 0.00 in
05:56 27.8 °F 22.1 °F 29.97 in SSW 8.5 mph 15.0 mph 79 % 0.00 in
06:02 27.8 °F 21.8 °F 29.98 in SW 4.4 mph 8.1 mph 78 % 0.00 in
06:07 27.7 °F 21.4 °F 29.98 in SW 5.0 mph 6.9 mph 77 % 0.00 in
06:12 27.5 °F 21.2 °F 29.98 in WSW 3.2 mph 11.5 mph 77 % 0.00 in
06:13 27.5 °F 21.2 °F 29.98 in WSW 3.3 mph 11.5 mph 77 % 0.00 in
06:15 27.5 °F 21.2 °F 29.98 in SSW 4.2 mph 9.2 mph 77 % 0.00 in
06:20 27.3 °F 21.0 °F 29.98 in SW 4.0 mph 10.0 mph 77 % 0.00 in
06:25 27.2 °F 20.9 °F 29.98 in SSW 3.7 mph 10.4 mph 77 % 0.00 in
06:26 27.2 °F 20.9 °F 29.98 in SW 5.0 mph 14.0 mph 77 % 0.00 in
06:31 27.1 °F 20.8 °F 29.98 in SW 5.0 mph 12.0 mph 77 % 0.00 in
06:33 27.0 °F 20.7 °F 29.98 in SSW 4.0 mph 6.9 mph 77 % 0.00 in
06:38 26.9 °F 20.7 °F 29.98 in SW 3.3 mph 9.2 mph 77 % 0.00 in
06:40 26.8 °F 20.6 °F 29.98 in South 3.6 mph 5.8 mph 77 % 0.00 in
06:45 26.7 °F 20.5 °F 29.98 in SW 6.2 mph 8.1 mph 77 % 0.00 in
06:50 26.6 °F 20.4 °F 29.98 in SW 5.6 mph 7.0 mph 77 % 0.00 in
06:51 26.6 °F 20.4 °F 29.99 in SW 6.2 mph 9.2 mph 77 % 0.00 in
06:56 26.5 °F 20.3 °F 29.99 in WSW 3.9 mph 6.9 mph 77 % 0.00 in
06:58 26.5 °F 20.3 °F 29.99 in SSW 5.5 mph 9.2 mph 77 % 0.00 in
07:03 26.4 °F 20.2 °F 29.99 in WSW 4.6 mph 8.1 mph 77 % 0.00 in
07:05 26.4 °F 20.2 °F 29.99 in SW 4.5 mph 7.0 mph 77 % 0.00 in
07:08 26.4 °F 20.2 °F 30.00 in SW 7.3 mph 12.7 mph 77 % 0.00 in
07:11 26.3 °F 20.1 °F 30.00 in SW 7.9 mph 11.5 mph 77 % 0.00 in
07:16 26.4 °F 20.2 °F 30.00 in SW 4.2 mph 6.9 mph 77 % 0.00 in
07:18 26.4 °F 20.2 °F 30.01 in South 5.0 mph 8.1 mph 77 % 0.00 in
07:19 26.4 °F 20.2 °F 30.01 in WSW 5.6 mph 11.5 mph 77 % 0.00 in
07:24 26.4 °F 19.9 °F 30.01 in SW 4.4 mph 6.9 mph 76 % 0.00 in
07:29 26.5 °F 20.0 °F 30.01 in SSW 4.4 mph 6.0 mph 76 % 0.00 in
07:34 26.5 °F 20.0 °F 30.01 in SW 4.6 mph 6.9 mph 76 % 0.00 in
07:36 26.5 °F 20.0 °F 30.01 in SW 3.0 mph 6.9 mph 76 % 0.00 in
07:41 26.4 °F 19.9 °F 30.01 in South 2.9 mph 6.0 mph 76 % 0.00 in
07:45 26.4 °F 19.9 °F 30.02 in SW 3.8 mph 8.0 mph 76 % 0.00 in
07:50 26.4 °F 20.2 °F 30.01 in SW 3.8 mph 3.8 mph 77 % 0.00 in
07:51 26.3 °F 20.1 °F 30.01 in SSW 3.7 mph 5.0 mph 77 % 0.00 in
07:56 26.3 °F 20.1 °F 30.02 in SSW 2.8 mph 6.9 mph 77 % 0.00 in
08:01 26.3 °F 20.1 °F 30.02 in SW 4.4 mph 6.0 mph 77 % 0.00 in
08:02 26.3 °F 20.1 °F 30.02 in SW 4.9 mph 6.9 mph 77 % 0.00 in
08:07 26.3 °F 20.1 °F 30.02 in SW 4.2 mph 6.0 mph 77 % 0.00 in
08:09 26.2 °F 20.0 °F 30.02 in SSW 2.7 mph 6.9 mph 77 % 0.00 in
08:12 26.2 °F 20.0 °F 30.02 in WSW 3.6 mph 6.9 mph 77 % 0.00 in
08:17 26.3 °F 20.1 °F 30.03 in SW 3.0 mph 6.9 mph 77 % 0.00 in
08:21 26.3 °F 20.1 °F 30.03 in SW 4.5 mph 11.0 mph 77 % 0.00 in
08:26 26.4 °F 20.5 °F 30.03 in SSW 4.8 mph 10.4 mph 78 % 0.00 in
08:29 26.5 °F 20.6 °F 30.04 in SW 5.3 mph 11.5 mph 78 % 0.00 in
08:34 26.6 °F 20.7 °F 30.04 in SW 6.4 mph 10.4 mph 78 % 0.00 in
08:39 26.9 °F 21.0 °F 30.03 in WSW 3.3 mph 9.2 mph 78 % 0.00 in
08:40 26.9 °F 21.0 °F 30.03 in SSW 5.0 mph 8.1 mph 78 % 0.00 in
08:45 27.1 °F 21.2 °F 30.04 in SSW 1.2 mph 4.6 mph 78 % 0.00 in
08:49 27.2 °F 21.2 °F 30.04 in SSW 6.3 mph 11.5 mph 78 % 0.00 in
08:54 27.5 °F 21.2 °F 30.05 in WSW 6.4 mph 9.2 mph 77 % 0.00 in
08:59 27.7 °F 21.4 °F 30.04 in SW 6.3 mph 7.0 mph 77 % 0.00 in
09:04 27.9 °F 21.6 °F 30.04 in SSW 4.2 mph 6.9 mph 77 % 0.00 in
09:08 28.1 °F 21.8 °F 30.04 in SW 6.2 mph 11.5 mph 77 % 0.00 in
09:11 28.2 °F 21.9 °F 30.04 in SW 5.6 mph 9.0 mph 77 % 0.00 in
09:17 28.5 °F 21.9 °F 30.05 in WSW 3.9 mph 8.1 mph 76 % 0.00 in
09:18 28.6 °F 22.3 °F 30.05 in WSW 3.4 mph 5.0 mph 77 % 0.00 in
09:23 28.8 °F 22.5 °F 30.05 in SW 4.4 mph 8.1 mph 77 % 0.00 in
09:26 29.0 °F 22.4 °F 30.05 in SW 2.5 mph 10.4 mph 76 % 0.00 in
09:31 29.2 °F 22.6 °F 30.05 in South 5.8 mph 9.2 mph 76 % 0.00 in
09:36 29.6 °F 23.0 °F 30.06 in SW 4.4 mph 8.1 mph 76 % 0.00 in
09:37 29.7 °F 23.1 °F 30.06 in SW 5.9 mph 7.0 mph 76 % 0.00 in
09:42 30.0 °F 23.4 °F 30.06 in SSW 5.8 mph 9.2 mph 76 % 0.00 in
09:43 30.1 °F 23.4 °F 30.06 in SW 7.7 mph 13.0 mph 76 % 0.00 in
09:44 30.1 °F 23.1 °F 30.06 in WSW 9.1 mph 13.8 mph 75 % 0.00 in
09:49 30.5 °F 23.2 °F 30.06 in SW 4.4 mph 9.2 mph 74 % 0.00 in
09:50 30.6 °F 23.3 °F 30.06 in WSW 7.4 mph 10.0 mph 74 % 0.00 in
09:51 30.7 °F 23.4 °F 30.06 in WSW 5.0 mph 10.4 mph 74 % 0.00 in
09:55 31.0 °F 23.7 °F 30.06 in SSW 5.8 mph 11.5 mph 74 % 0.00 in
10:00 31.5 °F 23.8 °F 30.06 in WSW 6.2 mph 9.2 mph 73 % 0.00 in
10:01 31.5 °F 23.8 °F 30.06 in WSW 4.3 mph 9.2 mph 73 % 0.00 in
10:06 32.0 °F 24.0 °F 30.06 in West 4.4 mph 9.2 mph 72 % 0.00 in
10:07 32.1 °F 24.1 °F 30.06 in South 8.2 mph 16.1 mph 72 % 0.00 in
10:11 32.4 °F 24.0 °F 30.05 in SSW 8.0 mph 11.5 mph 71 % 0.00 in
10:15 32.7 °F 24.0 °F 30.05 in SW 7.0 mph 11.5 mph 70 % 0.00 in
10:20 33.0 °F 23.9 °F 30.05 in WSW 5.7 mph 13.8 mph 69 % 0.00 in
10:21 33.1 °F 24.4 °F 30.05 in WSW 6.3 mph 11.0 mph 70 % 0.00 in
10:22 33.2 °F 24.5 °F 30.05 in WSW 6.7 mph 11.5 mph 70 % 0.00 in
10:27 33.6 °F 24.9 °F 30.05 in SSW 8.1 mph 10.0 mph 70 % 0.00 in
10:31 33.8 °F 24.4 °F 30.04 in SW 7.9 mph 12.7 mph 68 % 0.00 in
10:36 34.1 °F 24.6 °F 30.04 in SSW 6.0 mph 9.2 mph 68 % 0.00 in
10:37 34.2 °F 24.7 °F 30.04 in West 4.7 mph 5.8 mph 68 % 0.00 in
10:41 34.3 °F 24.5 °F 30.04 in WSW 9.0 mph 12.7 mph 67 % 0.00 in
10:44 34.5 °F 24.7 °F 30.04 in SW 6.1 mph 19.6 mph 67 % 0.00 in
10:49 34.8 °F 25.0 °F 30.04 in SSW 6.5 mph 11.5 mph 67 % 0.00 in
10:54 35.1 °F 24.9 °F 30.03 in SW 5.7 mph 11.0 mph 66 % 0.00 in
10:56 35.2 °F 25.0 °F 30.03 in SW 4.6 mph 11.5 mph 66 % 0.00 in
11:01 35.4 °F 25.2 °F 30.03 in West 4.6 mph 9.2 mph 66 % 0.00 in
11:02 35.4 °F 25.2 °F 30.03 in SW 4.4 mph 12.0 mph 66 % 0.00 in
11:05 35.6 °F 25.4 °F 30.03 in SSW 8.3 mph 12.7 mph 66 % 0.00 in
11:10 35.6 °F 25.0 °F 30.03 in WSW 3.5 mph 10.4 mph 65 % 0.00 in
11:11 35.6 °F 25.0 °F 30.03 in SW 3.7 mph 4.6 mph 65 % 0.00 in
11:16 35.6 °F 25.7 °F 30.02 in SW 3.3 mph 5.0 mph 67 % 0.00 in
11:17 35.6 °F 25.7 °F 30.02 in West 5.1 mph 9.2 mph 67 % 0.00 in
11:22 35.5 °F 25.3 °F 30.02 in SSW 4.7 mph 10.4 mph 66 % 0.00 in
11:28 35.5 °F 25.6 °F 30.02 in SSW 5.1 mph 8.1 mph 67 % 0.00 in
11:30 35.6 °F 25.7 °F 30.02 in SSW 5.4 mph 8.1 mph 67 % 0.00 in
11:32 35.6 °F 25.7 °F 30.02 in WSW 3.5 mph 8.1 mph 67 % 0.00 in
11:37 35.8 °F 25.9 °F 30.01 in SW 3.8 mph 9.2 mph 67 % 0.00 in
11:42 35.9 °F 26.4 °F 30.01 in WSW 4.9 mph 10.0 mph 68 % 0.00 in
11:43 36.0 °F 26.5 °F 30.01 in WSW 6.5 mph 10.4 mph 68 % 0.00 in
11:45 36.0 °F 26.5 °F 30.01 in WSW 3.3 mph 6.9 mph 68 % 0.00 in
11:50 36.2 °F 26.6 °F 30.01 in SW 3.9 mph 4.0 mph 68 % 0.00 in
11:55 36.4 °F 26.5 °F 30.00 in WSW 5.3 mph 15.0 mph 67 % 0.00 in
11:58 36.4 °F 26.1 °F 30.00 in SW 8.5 mph 11.5 mph 66 % 0.00 in
12:01 36.4 °F 26.1 °F 30.00 in South 7.1 mph 11.5 mph 66 % 0.00 in
12:04 36.4 °F 26.1 °F 30.00 in SW 7.8 mph 12.7 mph 66 % 0.00 in
12:09 36.4 °F 25.7 °F 30.00 in WSW 8.1 mph 15.0 mph 65 % 0.00 in
12:10 36.4 °F 25.7 °F 30.00 in WSW 6.5 mph 13.8 mph 65 % 0.00 in
12:15 36.5 °F 26.2 °F 29.99 in WSW 3.7 mph 9.2 mph 66 % 0.00 in
12:18 36.5 °F 26.2 °F 29.99 in WSW 7.2 mph 11.5 mph 66 % 0.00 in
12:20 36.5 °F 26.2 °F 29.99 in SW 6.9 mph 10.4 mph 66 % 0.00 in
12:26 36.6 °F 26.3 °F 29.99 in WSW 7.0 mph 11.5 mph 66 % 0.00 in
12:31 36.8 °F 26.5 °F 29.98 in WSW 9.0 mph 14.0 mph 66 % 0.00 in
12:32 36.9 °F 26.6 °F 29.98 in WNW 3.9 mph 9.2 mph 66 % 0.00 in
12:33 37.0 °F 26.7 °F 29.97 in SW 4.3 mph 10.4 mph 66 % 0.00 in
12:38 37.1 °F 26.4 °F 29.98 in WSW 7.6 mph 16.1 mph 65 % 0.00 in
12:43 37.3 °F 27.0 °F 29.98 in WSW 3.7 mph 12.7 mph 66 % 0.00 in
12:45 37.3 °F 27.0 °F 29.98 in WSW 8.2 mph 13.8 mph 66 % 0.00 in
12:51 37.1 °F 26.4 °F 29.98 in West 5.9 mph 18.4 mph 65 % 0.00 in
12:53 37.1 °F 26.8 °F 29.98 in SW 6.1 mph 17.3 mph 66 % 0.00 in
12:55 37.1 °F 26.8 °F 29.98 in WSW 4.0 mph 13.8 mph 66 % 0.00 in
13:00 37.3 °F 27.0 °F 29.98 in West 6.5 mph 11.5 mph 66 % 0.00 in
13:01 37.3 °F 27.0 °F 29.98 in West 3.3 mph 11.5 mph 66 % 0.00 in
13:06 37.4 °F 27.4 °F 29.98 in WSW 7.1 mph 11.5 mph 67 % 0.00 in
13:11 37.6 °F 27.6 °F 29.98 in WSW 8.0 mph 13.8 mph 67 % 0.00 in
13:13 37.5 °F 27.2 °F 29.98 in NNW 8.7 mph 13.8 mph 66 % 0.00 in
13:14 37.5 °F 27.2 °F 29.98 in SSW 10.1 mph 20.0 mph 66 % 0.00 in
13:19 37.4 °F 27.1 °F 29.98 in WSW 5.1 mph 11.5 mph 66 % 0.00 in
13:23 37.4 °F 27.1 °F 29.97 in WSW 6.4 mph 11.5 mph 66 % 0.00 in
13:26 37.4 °F 27.1 °F 29.97 in SSW 5.7 mph 15.0 mph 66 % 0.00 in
13:28 37.4 °F 27.4 °F 29.97 in WNW 7.0 mph 18.4 mph 67 % 0.00 in
13:32 37.4 °F 27.1 °F 29.97 in WSW 6.9 mph 13.8 mph 66 % 0.00 in
13:37 37.5 °F 27.2 °F 29.97 in West 5.3 mph 11.5 mph 66 % 0.00 in
13:42 37.5 °F 27.2 °F 29.97 in WSW 9.5 mph 14.0 mph 66 % 0.00 in
13:43 37.6 °F 27.3 °F 29.97 in WSW 8.7 mph 17.3 mph 66 % 0.00 in
13:44 37.6 °F 26.9 °F 29.97 in SW 10.3 mph 19.6 mph 65 % 0.00 in
13:49 37.5 °F 26.8 °F 29.97 in WSW 8.5 mph 11.5 mph 65 % 0.00 in
13:50 37.5 °F 26.8 °F 29.97 in SW 8.3 mph 11.5 mph 65 % 0.00 in
13:55 37.7 °F 27.0 °F 29.97 in SW 8.3 mph 12.7 mph 65 % 0.00 in
13:57 37.8 °F 27.5 °F 29.97 in West 11.5 mph 17.3 mph 66 % 0.00 in
14:02 38.0 °F 27.3 °F 29.97 in West 8.6 mph 17.3 mph 65 % 0.00 in
14:07 38.2 °F 27.8 °F 29.97 in WNW 12.3 mph 19.6 mph 66 % 0.00 in
14:09 38.2 °F 27.8 °F 29.98 in WSW 5.7 mph 10.4 mph 66 % 0.00 in
14:14 38.3 °F 27.9 °F 29.98 in WNW 5.0 mph 8.1 mph 66 % 0.00 in
14:16 38.3 °F 27.9 °F 29.98 in WSW 8.0 mph 15.0 mph 66 % 0.00 in
14:20 38.3 °F 27.9 °F 29.98 in SSW 6.0 mph 9.2 mph 66 % 0.00 in
14:25 38.2 °F 27.8 °F 29.98 in SW 9.2 mph 12.0 mph 66 % 0.00 in
14:26 38.2 °F 27.8 °F 29.98 in WSW 8.0 mph 16.0 mph 66 % 0.00 in
14:31 38.0 °F 27.6 °F 29.97 in SW 6.0 mph 13.0 mph 66 % 0.00 in
14:34 37.9 °F 27.5 °F 29.97 in West 3.5 mph 6.0 mph 66 % 0.00 in
14:35 37.9 °F 27.5 °F 29.98 in West 5.8 mph 11.5 mph 66 % 0.00 in
14:40 37.8 °F 27.5 °F 29.98 in WSW 6.6 mph 11.5 mph 66 % 0.00 in
14:44 37.7 °F 27.4 °F 29.98 in West 8.4 mph 15.0 mph 66 % 0.00 in
14:48 37.5 °F 27.2 °F 29.99 in WSW 6.6 mph 10.4 mph 66 % 0.00 in
14:54 37.5 °F 27.2 °F 29.99 in SW 6.3 mph 12.7 mph 66 % 0.00 in
14:59 37.4 °F 27.4 °F 29.98 in WSW 7.6 mph 13.8 mph 67 % 0.00 in
15:00 37.4 °F 27.4 °F 29.98 in WSW 6.0 mph 13.8 mph 67 % 0.00 in
15:05 37.4 °F 27.8 °F 29.98 in SSW 4.2 mph 10.4 mph 68 % 0.00 in
15:09 37.3 °F 27.7 °F 29.98 in West 4.9 mph 15.0 mph 68 % 0.00 in
15:11 37.3 °F 27.7 °F 29.98 in WSW 3.0 mph 15.0 mph 68 % 0.00 in
15:16 37.3 °F 28.1 °F 29.98 in WSW 6.1 mph 15.0 mph 69 % 0.00 in
15:18 37.3 °F 27.7 °F 29.98 in WSW 7.5 mph 11.5 mph 68 % 0.00 in
15:23 37.3 °F 28.1 °F 29.98 in West 9.0 mph 19.6 mph 69 % 0.00 in
15:24 37.3 °F 27.7 °F 29.98 in West 5.2 mph 12.7 mph 68 % 0.00 in
15:29 37.3 °F 27.7 °F 29.99 in SSW 7.0 mph 11.5 mph 68 % 0.00 in
15:35 37.3 °F 27.7 °F 29.99 in SW 7.2 mph 15.0 mph 68 % 0.00 in
15:40 37.3 °F 28.1 °F 29.99 in West 6.9 mph 12.7 mph 69 % 0.00 in
15:44 37.3 °F 28.1 °F 29.99 in SSW 3.2 mph 8.1 mph 69 % 0.00 in
15:49 37.3 °F 28.1 °F 29.99 in West 5.7 mph 10.4 mph 69 % 0.00 in
15:52 37.3 °F 28.1 °F 29.99 in SW 7.9 mph 12.7 mph 69 % 0.00 in
15:57 37.3 °F 28.1 °F 30.00 in WSW 6.2 mph 11.5 mph 69 % 0.00 in
16:02 37.3 °F 28.1 °F 30.00 in West 6.5 mph 18.4 mph 69 % 0.00 in
16:07 37.2 °F 28.3 °F 30.00 in WNW 6.1 mph 18.0 mph 70 % 0.00 in
16:12 37.2 °F 28.3 °F 30.00 in WSW 5.3 mph 9.2 mph 70 % 0.00 in
16:13 37.2 °F 28.3 °F 30.00 in West 8.9 mph 15.0 mph 70 % 0.00 in
16:19 37.2 °F 28.3 °F 30.01 in SW 5.6 mph 9.2 mph 70 % 0.00 in
16:24 37.2 °F 28.7 °F 30.01 in WSW 5.5 mph 10.4 mph 71 % 0.00 in
16:30 37.2 °F 28.7 °F 30.01 in WSW 3.0 mph 11.5 mph 71 % 0.00 in
16:31 37.2 °F 28.7 °F 30.01 in SW 7.3 mph 12.7 mph 71 % 0.00 in
16:36 37.2 °F 28.7 °F 30.02 in South 9.1 mph 15.0 mph 71 % 0.00 in
16:37 37.1 °F 28.6 °F 30.02 in West 7.3 mph 15.0 mph 71 % 0.00 in
16:42 37.1 °F 28.6 °F 30.02 in SW 5.0 mph 11.5 mph 71 % 0.00 in
16:43 37.1 °F 28.6 °F 30.02 in West 7.2 mph 13.8 mph 71 % 0.00 in
16:48 37.2 °F 28.7 °F 30.02 in West 5.9 mph 9.0 mph 71 % 0.00 in
16:53 37.2 °F 28.7 °F 30.02 in West 9.1 mph 17.0 mph 71 % 0.00 in
16:54 37.2 °F 28.7 °F 30.03 in WSW 10.5 mph 17.3 mph 71 % 0.00 in
16:59 37.3 °F 28.8 °F 30.02 in WSW 4.4 mph 10.4 mph 71 % 0.00 in
17:02 37.3 °F 28.8 °F 30.03 in West 4.1 mph 11.5 mph 71 % 0.00 in
17:03 37.3 °F 28.8 °F 30.03 in SW 5.1 mph 10.4 mph 71 % 0.00 in
17:07 37.3 °F 28.8 °F 30.03 in WSW 6.1 mph 9.2 mph 71 % 0.00 in
17:10 37.3 °F 28.8 °F 30.03 in WSW 1.9 mph 8.1 mph 71 % 0.00 in
17:12 37.3 °F 28.8 °F 30.03 in SW 1.6 mph 5.8 mph 71 % 0.00 in
17:17 37.3 °F 29.1 °F 30.03 in West 2.0 mph 4.6 mph 72 % 0.00 in
17:19 37.3 °F 29.1 °F 30.03 in WSW 6.3 mph 10.4 mph 72 % 0.00 in
17:24 37.3 °F 29.1 °F 30.04 in WSW 7.9 mph 10.0 mph 72 % 0.00 in
17:25 37.3 °F 28.8 °F 30.04 in West 8.5 mph 9.2 mph 71 % 0.00 in
17:30 37.3 °F 29.1 °F 30.04 in WNW 1.4 mph 6.9 mph 72 % 0.00 in
17:33 37.3 °F 29.1 °F 30.05 in WSW 4.2 mph 8.1 mph 72 % 0.00 in
17:38 37.3 °F 29.1 °F 30.05 in West 2.7 mph 6.9 mph 72 % 0.00 in
17:39 37.3 °F 29.1 °F 30.05 in West 2.0 mph 6.9 mph 72 % 0.00 in
17:44 37.3 °F 29.4 °F 30.06 in WNW 3.4 mph 5.0 mph 73 % 0.00 in
17:49 37.3 °F 29.4 °F 30.06 in WNW 4.3 mph 8.1 mph 73 % 0.00 in
17:50 37.3 °F 29.4 °F 30.06 in NW 2.2 mph 5.8 mph 73 % 0.00 in
17:54 37.3 °F 29.4 °F 30.06 in WNW 1.9 mph 4.6 mph 73 % 0.00 in
17:56 37.3 °F 29.4 °F 30.06 in WNW 0.9 mph 3.5 mph 73 % 0.00 in
18:01 37.3 °F 29.8 °F 30.07 in West 2.3 mph 4.6 mph 74 % 0.00 in
18:03 37.3 °F 29.4 °F 30.07 in WSW 2.1 mph 7.0 mph 73 % 0.00 in
18:08 37.2 °F 29.3 °F 30.07 in WNW 3.6 mph 6.9 mph 73 % 0.00 in
18:09 37.2 °F 29.3 °F 30.07 in West 4.1 mph 8.0 mph 73 % 0.00 in
18:14 37.2 °F 29.3 °F 30.08 in WNW 5.4 mph 5.8 mph 73 % 0.00 in
18:16 37.2 °F 29.3 °F 30.08 in WNW 3.8 mph 9.2 mph 73 % 0.00 in
18:17 37.2 °F 29.3 °F 30.08 in West 1.5 mph 9.2 mph 73 % 0.00 in
18:22 37.1 °F 29.2 °F 30.08 in West 2.2 mph 5.8 mph 73 % 0.00 in
18:25 37.2 °F 29.3 °F 30.08 in WNW 0.6 mph 3.5 mph 73 % 0.00 in
18:26 37.2 °F 29.3 °F 30.09 in WNW 1.0 mph 3.5 mph 73 % 0.00 in
18:31 37.2 °F 29.3 °F 30.09 in NW 2.2 mph 4.6 mph 73 % 0.00 in
18:33 37.2 °F 29.7 °F 30.09 in WNW 1.5 mph 8.1 mph 74 % 0.00 in
18:38 37.2 °F 29.7 °F 30.10 in West 2.0 mph 9.2 mph 74 % 0.00 in
18:39 37.2 °F 29.7 °F 30.09 in WNW 3.7 mph 9.2 mph 74 % 0.00 in
18:41 37.2 °F 29.7 °F 30.09 in NW 3.4 mph 9.2 mph 74 % 0.00 in
18:46 37.2 °F 29.7 °F 30.10 in West 2.7 mph 8.1 mph 74 % 0.00 in
18:47 37.2 °F 29.7 °F 30.10 in WNW 4.9 mph 10.4 mph 74 % 0.00 in
18:52 37.2 °F 29.7 °F 30.10 in West 2.6 mph 6.9 mph 74 % 0.00 in
18:54 37.2 °F 29.7 °F 30.10 in NW 3.1 mph 9.0 mph 74 % 0.00 in
18:58 37.2 °F 29.7 °F 30.10 in WNW 5.3 mph 8.0 mph 74 % 0.00 in
19:00 37.2 °F 29.7 °F 30.10 in WNW 4.1 mph 8.1 mph 74 % 0.00 in
19:05 37.2 °F 29.7 °F 30.10 in WNW 2.3 mph 5.0 mph 74 % 0.00 in
19:10 37.2 °F 29.7 °F 30.10 in WSW 4.7 mph 7.0 mph 74 % 0.00 in
19:15 37.1 °F 29.6 °F 30.11 in WNW 3.8 mph 8.1 mph 74 % 0.00 in
19:18 37.1 °F 29.9 °F 30.11 in WNW 4.0 mph 11.0 mph 75 % 0.00 in
19:24 37.1 °F 29.9 °F 30.12 in NW 6.3 mph 9.0 mph 75 % 0.00 in
19:29 37.1 °F 29.6 °F 30.12 in WNW 2.2 mph 4.0 mph 74 % 0.00 in
19:32 37.1 °F 29.6 °F 30.12 in NW 4.9 mph 10.4 mph 74 % 0.00 in
19:34 37.1 °F 29.9 °F 30.12 in WNW 4.2 mph 8.1 mph 75 % 0.00 in
19:39 37.1 °F 29.9 °F 30.12 in West 2.1 mph 5.8 mph 75 % 0.00 in
19:40 37.1 °F 29.9 °F 30.12 in NW 3.7 mph 8.1 mph 75 % 0.00 in
19:45 37.1 °F 29.9 °F 30.12 in WSW 5.8 mph 9.2 mph 75 % 0.00 in
19:50 37.0 °F 29.8 °F 30.13 in WNW 6.0 mph 10.4 mph 75 % 0.00 in
19:55 37.0 °F 29.8 °F 30.13 in WNW 3.1 mph 6.9 mph 75 % 0.00 in
20:00 37.0 °F 30.1 °F 30.13 in WNW 3.6 mph 8.1 mph 76 % 0.00 in
20:01 37.0 °F 30.1 °F 30.13 in NW 3.8 mph 6.9 mph 76 % 0.00 in
20:06 37.0 °F 30.1 °F 30.14 in WNW 4.4 mph 6.9 mph 76 % 0.00 in
20:08 37.0 °F 30.1 °F 30.14 in WNW 3.4 mph 9.2 mph 76 % 0.00 in
20:11 37.0 °F 30.1 °F 30.14 in WNW 3.4 mph 8.1 mph 76 % 0.00 in
20:16 37.0 °F 30.1 °F 30.14 in WNW 4.2 mph 10.0 mph 76 % 0.00 in
20:17 37.0 °F 30.1 °F 30.14 in WNW 3.9 mph 9.2 mph 76 % 0.00 in
20:18 37.0 °F 30.1 °F 30.14 in WNW 4.5 mph 11.5 mph 76 % 0.00 in
20:22 37.0 °F 30.1 °F 30.15 in NNW 6.5 mph 12.7 mph 76 % 0.00 in
20:27 37.0 °F 29.5 °F 30.15 in West 3.8 mph 10.4 mph 74 % 0.00 in
20:31 37.0 °F 28.8 °F 30.15 in WNW 5.0 mph 10.4 mph 72 % 0.00 in
20:36 36.9 °F 28.7 °F 30.15 in NNW 2.9 mph 5.8 mph 72 % 0.00 in
20:38 36.8 °F 28.6 °F 30.15 in WNW 1.7 mph 5.8 mph 72 % 0.00 in
20:43 36.8 °F 28.6 °F 30.15 in West 5.5 mph 11.5 mph 72 % 0.00 in
20:44 36.8 °F 28.6 °F 30.15 in WNW 3.8 mph 6.9 mph 72 % 0.00 in
20:49 36.7 °F 28.2 °F 30.15 in WNW 5.6 mph 8.1 mph 71 % 0.00 in
20:50 36.7 °F 28.2 °F 30.15 in NW 5.5 mph 8.1 mph 71 % 0.00 in
20:55 36.6 °F 28.1 °F 30.15 in West 5.3 mph 10.4 mph 71 % 0.00 in
21:00 36.5 °F 28.3 °F 30.15 in WNW 5.6 mph 9.2 mph 72 % 0.00 in
21:01 36.6 °F 28.4 °F 30.15 in NW 6.0 mph 9.2 mph 72 % 0.00 in
21:06 36.5 °F 28.3 °F 30.15 in West 3.5 mph 5.8 mph 72 % 0.00 in
21:08 36.5 °F 28.0 °F 30.15 in West 4.9 mph 10.4 mph 71 % 0.00 in
21:11 36.4 °F 27.9 °F 30.15 in WNW 5.7 mph 8.1 mph 71 % 0.00 in
21:16 36.4 °F 27.5 °F 30.16 in WNW 3.9 mph 6.9 mph 70 % 0.00 in
21:18 36.4 °F 27.5 °F 30.16 in WSW 3.7 mph 9.2 mph 70 % 0.00 in
21:23 36.3 °F 27.8 °F 30.16 in NW 4.2 mph 8.1 mph 71 % 0.00 in
21:25 36.2 °F 27.7 °F 30.16 in WNW 4.4 mph 8.1 mph 71 % 0.00 in
21:30 36.2 °F 27.4 °F 30.16 in WNW 2.6 mph 8.1 mph 70 % 0.00 in
21:35 36.1 °F 27.3 °F 30.16 in WNW 5.6 mph 12.7 mph 70 % 0.00 in
21:40 36.1 °F 27.6 °F 30.17 in NW 5.8 mph 10.4 mph 71 % 0.00 in
21:44 36.0 °F 27.5 °F 30.17 in NW 6.0 mph 11.5 mph 71 % 0.00 in
21:49 36.0 °F 27.2 °F 30.17 in NW 4.5 mph 11.5 mph 70 % 0.00 in
21:50 36.0 °F 27.2 °F 30.17 in NW 3.3 mph 11.5 mph 70 % 0.00 in
21:55 35.9 °F 27.4 °F 30.17 in NW 3.2 mph 9.0 mph 71 % 0.00 in
22:00 35.9 °F 27.4 °F 30.17 in NNW 2.9 mph 9.2 mph 71 % 0.00 in
22:05 35.8 °F 27.3 °F 30.17 in NNW 2.6 mph 4.6 mph 71 % 0.00 in
22:10 35.8 °F 27.3 °F 30.18 in WNW 4.9 mph 11.5 mph 71 % 0.00 in
22:12 35.7 °F 27.2 °F 30.18 in NW 1.8 mph 6.9 mph 71 % 0.00 in
22:17 35.7 °F 26.9 °F 30.18 in NW 2.2 mph 6.9 mph 70 % 0.00 in
22:18 35.7 °F 26.9 °F 30.18 in NW 2.1 mph 3.5 mph 70 % 0.00 in
22:23 35.6 °F 27.1 °F 30.18 in NW 3.3 mph 5.0 mph 71 % 0.00 in
22:25 35.6 °F 27.1 °F 30.19 in WNW 4.9 mph 4.9 mph 71 % 0.00 in
22:29 35.6 °F 27.1 °F 30.19 in NW 4.7 mph 7.0 mph 71 % 0.00 in
22:34 35.5 °F 27.0 °F 30.20 in WNW 1.6 mph 6.9 mph 71 % 0.00 in
22:39 35.4 °F 26.9 °F 30.19 in NW 5.0 mph 13.8 mph 71 % 0.00 in
22:42 35.4 °F 26.9 °F 30.19 in NW 5.3 mph 6.9 mph 71 % 0.00 in
22:48 35.3 °F 26.5 °F 30.19 in North 4.5 mph 6.9 mph 70 % 0.00 in
22:50 35.3 °F 26.8 °F 30.19 in NNW 3.8 mph 8.1 mph 71 % 0.00 in
22:52 35.3 °F 26.8 °F 30.19 in NW 1.7 mph 8.1 mph 71 % 0.00 in
22:55 35.3 °F 26.8 °F 30.19 in West 1.0 mph 4.6 mph 71 % 0.00 in
22:57 35.3 °F 26.8 °F 30.20 in NW 1.5 mph 4.6 mph 71 % 0.00 in
23:02 35.2 °F 26.7 °F 30.20 in NNW 2.5 mph 4.0 mph 71 % 0.00 in
23:03 35.2 °F 26.7 °F 30.20 in North 3.0 mph 5.0 mph 71 % 0.00 in
23:04 35.2 °F 26.7 °F 30.20 in NNW 2.3 mph 4.6 mph 71 % 0.00 in
23:09 35.2 °F 26.7 °F 30.20 in NW 1.1 mph 2.0 mph 71 % 0.00 in
23:12 35.2 °F 26.7 °F 30.20 in NW 2.7 mph 5.8 mph 71 % 0.00 in
23:14 35.1 °F 26.6 °F 30.20 in NNW 2.1 mph 3.5 mph 71 % 0.00 in
23:18 35.1 °F 27.0 °F 30.19 in North 2.3 mph 6.9 mph 72 % 0.00 in
23:23 35.1 °F 27.0 °F 30.19 in NW 4.2 mph 8.1 mph 72 % 0.00 in
23:28 35.0 °F 26.9 °F 30.20 in WNW 3.1 mph 5.0 mph 72 % 0.00 in
23:29 35.0 °F 26.9 °F 30.19 in NW 2.2 mph 4.6 mph 72 % 0.00 in
23:34 35.0 °F 26.9 °F 30.20 in NNW 2.6 mph 5.8 mph 72 % 0.00 in
23:39 35.0 °F 26.5 °F 30.20 in North 1.9 mph 5.8 mph 71 % 0.00 in
23:44 34.9 °F 26.8 °F 30.20 in NNE 3.7 mph 4.6 mph 72 % 0.00 in
23:49 34.9 °F 27.1 °F 30.20 in NNE 2.8 mph 5.8 mph 73 % 0.00 in
23:50 34.8 °F 27.0 °F 30.20 in NNE 3.1 mph 5.8 mph 73 % 0.00 in
23:55 34.8 °F 27.0 °F 30.20 in NNE 2.1 mph 9.2 mph 73 % 0.00 in
23:58 34.6 °F 26.8 °F 30.20 in NE 4.9 mph 8.1 mph 73 % 0.00 in
Crab Meadow Weather
Compliments of Weather Underground - 3.5 mb

Script developed by  Jim McMurry - jmcmurry@mwt.net Adapted for the template by  Wim van der Kuil - Leuven-Template.eu

Weather Terms: Severe Thunderstorm Warning - A severe thunderstorm is indicated by Doppler radar or sighted by skywarn spotters. A severe thunderstorm contains large damaging hail, 1 inch diameter or larger, and/or damaging winds of around 60 mph or greater. These warnings are issued on a county by county basis by the local Weather Forecast Office in Upton.